CZ-3B DEB, 40850

Orbit data source: Space-Track

CZ-3B DEB, 40850 is space debris in HEO originally from a launch on Mon, 19 Dec 2011 UTC launched from the Xichang Space Center, China (XSC). Debris objects in space refer to the collection of defunct objects orbiting the Earth. Examples of debris include non-operational satellites, rocket bodies, and fragments generated from explosions, collisions, or faulty payload assembly.

Not visible in the next 10 days
Identifier
40850, 2011-077AF
Orbit
HEO
Last TLE update
3 days ago
Origin
Manufacturer
CALT
Mission
Spacecraft
Bus & Motor
Unknown
Mass
Unknown
Launch date (UTC)
2011-12-19 (14 years ago)
Launch vehicle
Unknown
Launch site
Xichang Space Center, China (XSC)
Object type
Payload
Rocket body
Debris
Shape & HBR
Unknown
Radar Cross Section
Medium (>0.1 m² and <1 m²)

Expand to show TLE details & history

TLE from 3 days ago
0 CZ-3B DEB
1 40850U 11077AF  25181.57562571  .00000164  00000-0  46786-2 0  9992
2 40850  25.9492 342.9651 7469945  87.2616 347.7675  1.92872838 72505
Epoch: 2025-06-30T13:48Z
TLE epoch observation values (Epoch: 2025-06-30T13:48:54.061Z)
Latitude
-0.00002°
Longitude
-143.17825°
Altitude
5,235.365 km
Speed
7.35 km/s
True Right ascension
22h 51m 43s
True Declination
0° 00' 00"
Sunlit
Object was in daylight at epoch
Visualization orbit readout
Latitude
-18.00848°
Longitude
77.90131°
Altitude
19,736.395 km
Speed
3.988 km/s
Apparent Right ascension
12h 52m 33s
Apparent Declination
-27° 51' 16"
Sunlit
Object is in daylight
Visualization observer readout
Local Sidereal Time
17:44:27
Azimuth
238.185° WSW
Elevation
-5.811°
Doppler factor
1
Orbital elements
Apogee altitude
41,254.946 km
Perigee altitude
520.243 km
Semi-major axis
27,265.732 km
Eccentricity
0.74699
Inclination
25.9492°
RAAN
342.9651°
Arg. of periapsis
87.2616°
True anomaly
Unknown
Mean anomaly
347.7675°
Eccentric anomaly
Unknown
Mean motion
0.48208 °/min
Orbital period
746.77 mins
BSTAR
0.0046786
Loading maneuver chart data...
Loading SW <> Apogee altitude chart data...
Loading historical data...
Loading historical data...
Loading historical data...
Loading historical data...
Loading historical data...
Loading historical data...
Loading historical data...

CZ-3B DEB Visibility

Observer location: undefined°, undefined°

CZ-3B DEB is likely not visible in the next few days
Span
Click to sort rows by Start time (UTC) header in descending order
Start Az.
Max El. time (UTC)
Max El. Az.
Max El.
End time (UTC)
End Az.
|